DW4870 Weather Reports


time (UTC)temp
C
wind
direction
speed
KPH
gust
KPH
rain 1hr
cm
rain 24hr
cm
rain mn
cm
humidity
%
barometer
mb
20260507225519 15 0.0 0.0 0.00 0.18 0.00 69 1013.8
20260507224546 15 0.0 0.0 0.00 0.18 0.00 69 1013.8
20260507223536 15 0.0 0.0 0.00 0.18 0.00 69 1013.8
20260507222527 15 0.0 0.0 0.00 0.18 0.00 68 1013.7
20260507221518 16 0.0 0.0 0.00 0.18 0.00 68 1013.6
20260507220518 16 0.0 0.0 0.00 0.18 0.00 68 1013.6
20260507215539 16 22 1.6 3.2 0.00 0.18 0.18 68 1013.6
20260507214610 15 315 0.0 1.6 0.00 0.18 0.18 68 1013.6
20260507213541 15 315 1.6 1.6 0.00 0.18 0.18 68 1013.7
20260507212520 15 0.0 0.0 0.00 0.18 0.18 67 1013.8
20260507211542 15 0.0 0.0 0.00 0.18 0.18 66 1013.8
20260507210540 16 0.0 0.0 0.00 0.18 0.18 66 1013.7
20260507205601 16 0.0 0.0 0.00 0.18 0.18 67 1013.7
20260507204537 15 0.0 0.0 0.00 0.18 0.18 67 1013.6
20260507203535 15 0.0 0.0 0.00 0.18 0.18 67 1013.6
20260507202529 15 0.0 0.0 0.00 0.18 0.18 65 1013.7
20260507201545 15 0.0 0.0 0.00 0.18 0.18 64 1013.6
20260507200544 16 0.0 0.0 0.00 0.18 0.18 63 1013.6
20260507195544 16 0.0 0.0 0.00 0.18 0.18 62 1013.6
20260507194545 16 0.0 0.0 0.00 0.18 0.18 62 1013.6
20260507193542 17 0.0 0.0 0.00 0.18 0.18 61 1013.5
20260507192539 17 0.0 0.0 0.00 0.18 0.18 60 1013.5
20260507191538 17 0.0 0.0 0.00 0.18 0.18 59 1013.5
20260507190529 17 0.0 0.0 0.00 0.18 0.18 59 1013.4
20260507185518 18 0.0 0.0 0.00 0.18 0.18 59 1013.4
20260507184520 18 0.0 0.0 0.00 0.18 0.18 59 1013.4
20260507183548 18 0.0 0.0 0.00 0.18 0.18 59 1013.5
20260507182534 18 0.0 0.0 0.00 0.18 0.18 58 1013.5
20260507181611 18 0.0 0.0 0.00 0.18 0.18 57 1013.4
20260507180533 18 0.0 0.0 0.00 0.18 0.18 57 1013.4
20260507175526 19 0.0 0.0 0.00 0.18 0.18 56 1013.2
20260507174526 19 0.0 0.0 0.00 0.18 0.18 56 1013.2
20260507173608 20 0.0 0.0 0.00 0.18 0.18 56 1013.0
20260507172537 20 0.0 0.0 0.00 0.18 0.18 56 1013.1
20260507171534 20 0.0 0.0 0.00 0.18 0.18 55 1013.1
20260507170532 20 0.0 0.0 0.00 0.18 0.18 55 1013.0
20260507165533 20 0.0 0.0 0.00 0.18 0.18 55 1012.9
20260507164531 21 0.0 0.0 0.00 0.18 0.18 56 1012.9
20260507163527 21 0.0 0.0 0.00 0.18 0.18 56 1012.9
20260507162540 21 0.0 0.0 0.00 0.18 0.18 56 1012.9
20260507161545 21 0.0 0.0 0.00 0.18 0.18 55 1013.0
20260507160555 21 0.0 0.0 0.00 0.18 0.18 56 1013.1
20260507155533 21 23 1.6 3.2 0.00 0.18 0.18 56 1013.2
20260507154532 21 90 0.0 1.6 0.00 0.18 0.18 56 1013.2
20260507153545 21 158 1.6 1.6 0.00 0.18 0.18 56 1013.3
20260507152539 21 0.0 0.0 0.00 0.18 0.18 56 1013.2
20260507151548 21 113 0.0 1.6 0.00 0.18 0.18 56 1013.2
20260507150539 21 0.0 0.0 0.00 0.18 0.18 56 1013.2
20260507145536 21 0.0 0.0 0.00 0.18 0.18 57 1013.2
20260507144530 21 0.0 0.0 0.00 0.18 0.18 57 1013.5
20260507143519 21 45 1.6 1.6 0.00 0.18 0.18 57 1013.6
20260507142539 21 0.0 0.0 0.00 0.18 0.18 57 1013.7
20260507141530 21 0.0 0.0 0.00 0.18 0.18 57 1013.7
20260507140521 21 0.0 0.0 0.00 0.18 0.18 57 1013.8
20260507135539 21 113 1.6 4.8 0.00 0.18 0.18 57 1014.0
20260507134531 21 135 1.6 4.8 0.00 0.18 0.18 57 1014.1
20260507133548 21 47 3.2 9.7 0.00 0.18 0.18 57 1014.1
20260507132518 21 45 1.6 4.8 0.00 0.18 0.18 57 1014.2
20260507131547 21 23 1.6 4.8 0.00 0.18 0.18 58 1014.3
20260507130605 21 89 1.6 6.4 0.00 0.18 0.18 57 1014.4
20260507125542 21 23 1.6 3.2 0.00 0.18 0.18 56 1014.4
20260507124537 22 58 3.2 4.8 0.00 0.18 0.18 57 1014.4
20260507123528 22 29 4.8 6.4 0.00 0.18 0.18 56 1014.3
20260507122529 22 0.0 0.0 0.00 0.18 0.18 55 1014.3
20260507121522 22 139 6.4 8.0 0.00 0.18 0.18 55 1014.4
20260507120522 22 124 4.8 8.0 0.00 0.18 0.18 56 1014.4
20260507115522 22 134 4.8 8.0 0.00 0.18 0.18 56 1014.5
20260507114546 22 123 3.2 9.7 0.00 0.18 0.18 58 1014.5
20260507113649 21 0.0 0.0 0.00 0.18 0.18 59 1014.6
20260507112538 21 180 1.6 3.2 0.00 0.18 0.18 58 1014.7
20260507111544 21 126 3.2 6.4 0.00 0.18 0.18 59 1014.8
20260507110522 22 144 4.8 8.0 0.00 0.18 0.18 60 1014.8
20260507105546 21 97 1.6 8.0 0.00 0.18 0.18 60 1014.8
20260507104538 21 134 4.8 6.4 0.00 0.18 0.18 61 1014.9
20260507103545 21 131 3.2 4.8 0.00 0.18 0.18 62 1014.9
20260507102523 21 90 1.6 4.8 0.00 0.18 0.18 65 1015.0
20260507101546 21 45 1.6 3.2 0.00 0.18 0.18 65 1015.0
20260507100516 21 127 3.2 4.8 0.00 0.18 0.18 68 1015.0
20260507095544 20 0.0 0.0 0.00 0.18 0.18 69 1015.0
20260507094555 19 90 1.6 3.2 0.00 0.18 0.18 72 1015.1
20260507093532 18 92 4.8 4.8 0.00 0.18 0.18 73 1015.1
20260507092525 18 126 3.2 4.8 0.00 0.18 0.18 75 1015.1
20260507091546 18 113 1.6 3.2 0.00 0.18 0.18 76 1015.2
20260507090544 18 45 1.6 4.8 0.00 0.18 0.18 76 1015.2
20260507085536 18 61 3.2 6.4 0.00 0.18 0.18 76 1015.2
20260507084532 18 113 3.2 8.0 0.00 0.18 0.18 77 1015.2
20260507083534 18 158 1.6 6.4 0.00 0.18 0.18 80 1015.2
20260507082535 17 0.0 0.0 0.00 0.18 0.18 83 1015.2
20260507081655 17 0.0 0.0 0.00 0.18 0.18 83 1015.2
20260507080547 17 0.0 0.0 0.00 0.18 0.18 84 1015.2
20260507075521 17 113 0.0 3.2 0.00 0.18 0.18 85 1015.3
20260507074517 17 0.0 0.0 0.00 0.18 0.18 86 1015.3
20260507073516 17 90 1.6 3.2 0.00 0.18 0.18 87 1015.2
20260507072518 16 0.0 0.0 0.00 0.18 0.18 88 1015.2
20260507071540 15 0.0 0.0 0.00 0.18 0.18 88 1015.3
20260507070558 15 0.0 0.0 0.00 0.18 0.18 88 1015.3
20260507065529 15 0.0 0.0 0.00 0.18 0.18 88 1015.3
20260507064526 15 0.0 0.0 0.00 0.18 0.18 88 1015.2
20260507063520 14 0.0 0.0 0.00 0.18 0.18 88 1015.1
20260507062538 14 0.0 0.0 0.00 0.18 0.18 88 1015.2
20260507061524 14 0.0 0.0 0.00 0.18 0.18 88 1015.2
20260507060517 14 0.0 0.0 0.00 0.18 0.18 88 1015.2
20260507055517 14 0.0 0.0 0.00 0.18 0.18 88 1015.1
20260507054542 13 0.0 0.0 0.00 0.18 0.18 88 1015.0
20260507053532 13 0.0 0.0 0.00 0.25 0.18 88 1015.0
20260507052523 13 0.0 0.0 0.00 0.25 0.18 87 1014.9
20260507051532 13 0.0 0.0 0.00 0.25 0.18 87 1015.0
20260507050531 12 0.0 0.0 0.00 0.25 0.18 87 1014.9
20260507045538 12 0.0 0.0 0.00 0.25 0.18 87 1014.8
20260507044541 12 0.0 0.0 0.00 0.25 0.18 87 1014.7
20260507043551 12 0.0 0.0 0.00 0.25 0.18 87 1014.7
20260507042521 12 0.0 0.0 0.00 0.25 0.18 87 1014.5
20260507041519 12 0.0 0.0 0.00 0.25 0.18 86 1014.4
20260507040518 12 0.0 0.0 0.00 0.25 0.18 86 1014.4
20260507035545 12 0.0 0.0 0.00 0.25 0.18 86 1014.3
20260507034627 12 0.0 0.0 0.00 0.25 0.18 86 1014.2
20260507033606 13 0.0 0.0 0.00 0.25 0.18 86 1014.3
20260507032543 13 0.0 0.0 0.00 0.25 0.18 86 1014.3
20260507031538 13 0.0 0.0 0.00 0.25 0.18 86 1014.3
20260507030532 13 0.0 0.0 0.00 0.25 0.18 86 1014.2
20260507025524 13 0.0 0.0 0.00 0.25 0.18 86 1014.3
20260507024546 13 0.0 0.0 0.00 0.25 0.18 85 1014.3
20260507023557 13 0.0 0.0 0.05 0.25 0.18 85 1014.2
20260507022537 13 0.0 0.0 0.05 0.25 0.18 85 1014.2
20260507021551 13 0.0 0.0 0.05 0.25 0.18 85 1014.2
20260507020532 13 0.0 0.0 0.13 0.25 0.18 85 1014.1
20260507015517 13 0.0 0.0 0.13 0.25 0.18 85 1014.1
20260507014546 13 0.0 0.0 0.13 0.25 0.18 85 1014.1
20260507013558 13 0.0 0.0 0.13 0.18 0.13 85 1014.1
20260507012539 13 0.0 0.0 0.13 0.18 0.13 85 1014.2
20260507011532 13 0.0 0.0 0.13 0.18 0.13 85 1014.2
20260507010609 13 0.0 0.0 0.05 0.13 0.05 84 1014.1
20260507005521 13 0.0 0.0 0.05 0.13 0.05 84 1014.1
20260507004517 13 0.0 0.0 0.05 0.13 0.05 84 1014.1
20260507003542 13 0.0 0.0 0.00 0.05 0.00 84 1014.2
20260507002558 14 0.0 0.0 0.00 0.05 0.00 84 1014.3
20260507001534 14 0.0 0.0 0.00 0.05 0.00 84 1014.3
20260507000528 14 0.0 0.0 0.00 0.05 0.00 83 1014.2
20260506235537 14 0.0 0.0 0.00 0.05 0.00 83 1014.1
20260506234531 15 0.0 0.0 0.00 0.05 0.00 83 1014.0
20260506233519 15 180 1.6 3.2 0.00 0.05 0.00 83 1014.1
20260506232548 15 0.0 0.0 0.00 0.05 0.00 83 1014.0
20260506231546 15 0.0 0.0 0.00 0.05 0.00 83 1014.3
20260506230603 15 0.0 0.0 0.00 0.05 0.00 82 1014.3